Regional Weather Roundup
Issued by NWS

Home | Current Version | Previous Version | Text Only | Print | Product List | Glossary On
Versions: 1 2 3 4 5 6 7 8 9 10 11 12 13 14 15 16 17 18 19 20 21 22 23 24 25 26 27 28 29 30 31 32 33 34 35 36 37 38 39 40 41 42 43 44 45 46 47 48 49 50
000
ASUS43 KMPX 191301
RWRMN
WEATHER ROUNDUP FOR MINNESOTA
NATIONAL WEATHER SERVICE TWIN CITIES/CHANHASSEN MN
700 AM CST SUN NOV 19 2017


NOTE: "FAIR" INDICATES FEW OR NO CLOUDS BELOW 12,000 FEET WITH NO
SIGNIFICANT WEATHER AND/OR OBSTRUCTIONS TO VISIBILITY. N/A MEANS
CURRENT SKY AND/OR WEATHER CONDITIONS ARE NOT AVAILABLE.

MNZ060>063-068>070-191400-
   Twin Cities Metro

CITY           SKY/WX    TMP DP  RH WIND       PRES   REMARKS
TWIN CITIES    CLEAR     18  12  77 SW7       30.09R WCI   9
ST PAUL        CLEAR     17  10  74 W7        30.09R WCI   8
CRYSTAL        CLEAR     16   9  74 SW5       30.06R WCI   9
BLAINE         CLEAR     18  12  79 SW5       30.06R WCI  11
LAKEVILLE      CLEAR     14  10  85 W6        30.08R WCI   5
EDEN PRAIRIE   CLEAR     16  11  80 SW5       30.07R WCI   9
SOUTH ST PAUL  CLEAR     18  11  74 W6        30.08R WCI  10
LAKE ELMO      FAIR      18  12  79 W7        30.06S WCI   8
$$
MNZ001>005-007-008-013>017-022>024-027-028-191400-
   Northwest Minnesota

CITY           SKY/WX    TMP DP  RH WIND       PRES   REMARKS
BEMIDJI        CLOUDY    11   7  84 SW3       29.92F
HALLOCK        CLOUDY    12  10  92 S7        29.91F WCI   2
ROSEAU         CLOUDY    16   9  73 SW5       29.91S WCI   9
WARROAD        CLOUDY    10   7  85 SW5       29.91S WCI   2
CROOKSTON      PTCLDY    16  10  79 S3        29.96S
FOSSTON        CLOUDY    10   9  92 S5        29.93F WCI   2
DETROIT LAKES  CLOUDY    18  14  86 S5        29.95F WCI  11
MOORHEAD       CLOUDY    16  10  79 CALM      29.99R
PARK RAPIDS    CLOUDY    13   8  81 SW5       29.94F WCI   5
MAHNOMEN       FAIR      12   9  86 S7        29.94F WCI   2
$$
MNZ006-009>011-018-025>026-191400-
   North Central Minnesota

CITY           SKY/WX    TMP DP  RH WIND       PRES   REMARKS
BAUDETTE       CLOUDY     6   3  87 S3        29.90F
FLAG ISLAND    PTCLDY     7   1  78 W8        29.89S WCI  -6
INTL FALLS     MOCLDY     5   0  79 W5        29.90F WCI  -4
WASKISH        MOCLDY    14   9  79 W7        29.91F WCI   4
BIG FORK       PTCLDY     3   0  85 CALM      29.92F
LONGVILLE      CLOUDY    12   9  85 SW3       29.95F
GRAND RAPIDS   PTCLDY    12   8  84 W3        29.96S
CRANE LAKE     CLEAR      1   0  92 CALM      29.95R
ORR            CLEAR      1  -2  85 CALM      29.89S
COOK           CLEAR      5   1  85 W5        29.92S WCI  -4
WALKER         FAIR      10   6  83 SW3       29.94F
$$
MNZ012-019>021-037-191400-
   Northeast Minnesota

CITY           SKY/WX    TMP DP  RH WIND       PRES   REMARKS
DULUTH         PTCLDY     8   5  87 W10       29.93S WCI  -6
ELY            FLURRIES   5   3  92 CALM      29.89S
HIBBING        CLEAR      6   3  87 W3        29.92F
EVELETH        CLEAR      5   0  78 CALM      29.93S
DULUTH HARBOR  CLEAR     16  10  79 SW9       30.02R WCI   4
TWO HARBORS    CLEAR     10   5  79 SW6       29.93R WCI   1
SILVER BAY     CLEAR      9   7  92 CALM      29.91F
GRAND MARAIS     N/A     18  10  71 VRB3      29.91S
G MARAIS ARPRT FLURRIES   9   3  78 NW3       29.81F
$$
MNZ029>031-032-039>041-046>048-054>057-064-191400-
   West Central Minnesota

CITY           SKY/WX    TMP DP  RH WIND       PRES   REMARKS
FERGUS FALLS   CLOUDY    12  10  92 S3        30.02S
WHEATON        PTCLDY    19  14  79 S6        30.02F WCI  11
MORRIS         CLOUDY    16  12  86 S6        30.00F WCI   7
ALEXANDRIA     CLEAR     15  11  83 SW6       29.99F WCI   6
ELBOW LAKE     FAIR      14  11  89 S8        29.99F FOG     WCI   3
WADENA         CLOUDY    12  10  92 S3        29.96F
GLENWOOD       CLEAR     12  10  92 SW5       30.00F WCI   4
APPLETON         N/A     18  16  93 S3        30.02S
BENSON         CLOUDY    14  10  85 CALM      30.03F
ORTONVILLE     PTCLDY    18  14  86 MISG      30.01S
MADISON        CLOUDY    21  18  86 SW7       30.03F WCI  13
WILLMAR        FAIR      16  12  86 CALM      30.04F
$$
MNZ033>034-036-042>043-049>051-058-059-191400-
   Central Minnesota

CITY           SKY/WX    TMP DP  RH WIND       PRES   REMARKS
ST CLOUD       CLEAR     13  10  88 CALM      30.03F
SAUK CENTRE    FAIR      15  11  85 CALM      30.01F
PAYNESVILLE    CLEAR     14  12  92 CALM      30.03F
AITKIN         CLEAR     10   7  85 SW5       29.97F WCI   2
PINE RIVER     CLOUDY    10   7  85 CALM      30.00F
BRAINERD       CLOUDY    15  10  80 SW7       29.99F WCI   5
STAPLES        CLOUDY    12  10  92 CALM      29.98S
LONG PRAIRIE   FAIR      12  10  92 S5        30.01S WCI   4
LITTLE FALLS   CLOUDY    14   9  79 CALM      30.02S
LITCHFIELD     CLEAR     18  14  86 CALM      30.05S
BUFFALO        CLEAR     17  12  81 SW3       30.07R
MAPLE LAKE     CLEAR     17  13  88 SW3       30.06S
HUTCHINSON     CLOUDY    16  12  86 CALM      30.07S
$$
MNZ037-044-045-052-053-191400-
   East Central Minnesota

CITY           SKY/WX    TMP DP  RH WIND       PRES   REMARKS
PRINCETON      CLEAR     14  10  85 CALM      30.04R
MORA           CLEAR     14  10  85 W5        30.04S WCI   6
CAMBRIDGE      CLEAR     16   9  73 CALM      30.05R
RUSH CITY      CLEAR     15  10  82 W5        30.04F WCI   7
MOOSE LAKE     CLEAR     10   7  85 CALM      29.99S
HINCKLEY       FAIR      14  10  85 W6        30.02S WCI   5
CLOQUET        PTCLDY     9   5  85 SW3       29.96S
MCGREGOR       CLOUDY    12  10  92 SW3       29.99R
$$
MNZ071>073-080-081-089-090-097-098-191400-
   Southwest Minnesota

CITY           SKY/WX    TMP DP  RH WIND       PRES   REMARKS
MONTEVIDEO     CLEAR     18  16  93 SW5       30.04F WCI  11
GRANITE FALLS  CLOUDY    17  14  89 S8        30.06F WCI   6
CANBY          CLOUDY    29  19  66 SW14      30.03F WCI  19
MARSHALL       CLOUDY    24  17  74 SW15      30.05F WCI  11
REDWOOD FALLS  CLOUDY    18  12  77 SW7       30.07F WCI   9
OLIVIA         CLEAR     16  12  86 SW5       30.05F WCI   9
PIPESTONE      CLOUDY    18  12  79 SW6       30.05F WCI   9
WINDOM           N/A     18   7  62 SW6       30.08S WCI   9
WORTHINGTON    CLOUDY    19  15  84 SW10      30.08F WCI   7
JACKSON        PTCLDY    19  14  79 CALM      30.09F
SLAYTON        CLOUDY    22  16  78 W7        30.06F WCI  14
$$
MNZ065>067-074>077-082>085-091>093-191400-
   South Central Minnesota

CITY           SKY/WX    TMP DP  RH WIND       PRES   REMARKS
MANKATO        CLEAR     16  12  84 SW5       30.09S WCI   9
NEW ULM        CLEAR     16  10  79 CALM      30.08F
ST JAMES       CLEAR     18  12  79 SW7       30.10S WCI   8
FAIRMONT       CLEAR     19  14  81 W8        30.10F WCI   9
GLENCOE        CLEAR     17  13  86 SW3       30.07S
FARIBAULT      CLEAR     18  12  79 W7        30.08R WCI   8
OWATONNA       CLEAR     14  10  85 SW7       30.08R WCI   4
WASECA         CLEAR     14  12  92 SW7       30.11R WCI   4
ALBERT LEA     CLEAR     16  10  79 W5        30.09R WCI   9
$$
MNZ078>079-086>088-094>096-191400-
   Southeast Minnesota

CITY           SKY/WX    TMP DP  RH WIND       PRES   REMARKS
ROCHESTER      CLEAR     15  11  83 W10       30.05R WCI   2
RED WING       CLEAR     18  10  73 W5        30.06R WCI  11
STANTON        CLEAR     18  12  78 W6        30.07R WCI   9
DODGE CENTER   CLEAR     16  10  79 W8        30.05R WCI   5
WINONA         PTCLDY    21  14  73 NW8       30.08R WCI  12
AUSTIN         CLEAR     16  10  79 W8        30.07R WCI   5
PRESTON        CLEAR     15  10  82 W9        30.05S WCI   3
$$
ABBREVIATIONS USED IN REMARKS
   TC - TEMPERATURES IN CELSIUS
  WCI - WIND CHILL INDEX
   HX - HEAT INDEX
  VSB - VISIBILITY
$$




USA.gov is the U.S. government's official web portal to all federal, state and local government web resources and services.